MPEC 2004-K28 : 2004 KE1

The following Minor Planet Electronic Circular may be linked-to from your own Web pages, but must not otherwise be redistributed electronically.


Read MPEC 2004-K27 Read MPEC 2004-K29


M.P.E.C. 2004-K28                                Issued 2004 May 20, 14:13 UT

     The Minor Planet Electronic Circulars contain information on unusual
         minor planets and routine data on comets.  They are published
   on behalf of Commission 20 of the International Astronomical Union by the
          Minor Planet Center, Smithsonian Astrophysical Observatory,
                          Cambridge, MA 02138, U.S.A.

         Supported in part by the Steven and Michele Kirsch Foundation
             Prepared using the Tamkin Foundation Computer Network

                              MPC@CFA.HARVARD.EDU
          URL http://cfa-www.harvard.edu/iau/mpc.html  ISSN 1523-6714

                                   2004 KE1

Observations:
     K04K01E* C2004 05 19.25145 14 49 33.65 -19 38 59.8          20.4 V EK028691
     K04K01E  C2004 05 19.27802 14 49 29.88 -19 39 03.7          20.0 V EK028691
     K04K01E  C2004 05 19.30460 14 49 26.11 -19 39 07.7          19.7 V EK028691
     K04K01E IC2004 05 19.88510 14 48 12.48 -19 40 41.3                 EK028246
     K04K01E  C2004 05 19.88617 14 48 12.39 -19 40 41.8                 EK028246
     K04K01E  C2004 05 20.25327 14 47 25.06 -19 41 34.1          20.0 V EK028691
     K04K01E  C2004 05 20.25581 14 47 24.70 -19 41 34.6          20.2 V EK028691
     K04K01E  C2004 05 20.25840 14 47 24.33 -19 41 35.0          20.2 V EK028691
     K04K01E  C2004 05 20.26639 14 47 23.30 -19 41 35.3          19.4 R EK028926
     K04K01E  C2004 05 20.26947 14 47 22.77 -19 41 36.3          19.8 R EK028926
     K04K01E  C2004 05 20.27256 14 47 22.30 -19 41 36.6          19.8 R EK028926

Observer details:
246 Klet Observatory-KLENOT.  Observers J. Ticha, M. Tichy.  1.06-m KLENOT
    Telescope + CCD.
691 Steward Observatory, Kitt Peak.  Observer J. A. Larsen.  0.9-m f/3
    reflector + CCD.
926 Tenagra II Observatory.  Observers P. R. Holvorcem, M. Schwartz.  0.81-m
    f/7 Ritchey-Chretien + CCD.

Orbital elements:
2004 KE1
Epoch 2004 May 15.0 TT = JDT 2453140.5                  MPC
M 295.64371              (2000.0)            P               Q
n   0.62157852     Peri.  280.58511     +0.80370220     +0.59394371
a   1.3597907      Node    42.98994     -0.52322942     +0.73421254
e   0.2303350      Incl.    3.02364     -0.28336151     +0.32888116
P   1.59           H   21.7           G   0.15
From 11 observations 2004 May 19-20.

Ephemeris:
2004 KE1                 a,e,i = 1.36, 0.23, 3                   q = 1.0466
Date    TT    R. A. (2000) Decl.     Delta      r     Elong.  Phase     V
2004 05 15    14 58.46   -19 27.4    0.281    1.291   172.9     5.5    19.9
2004 05 25    14 37.27   -19 53.3    0.257    1.256   158.7    17.1    20.1
2004 06 04    14 17.66   -20 22.5    0.243    1.221   144.8    28.6    20.3
2004 06 14    14 03.32   -21 05.4    0.237    1.188   132.2    39.3    20.5
2004 06 24    13 56.42   -22 12.5    0.234    1.157   121.6    48.5    20.7
2004 07 04    13 57.43   -23 50.0    0.232    1.128   112.9    56.2    20.8
2004 07 14    14 05.89   -25 57.2    0.229    1.102   106.0    62.5    20.9
2004 07 24    14 21.75   -28 31.6    0.223    1.080   100.9    67.5    21.0
2004 08 03    14 45.32   -31 27.5    0.214    1.063    97.3    71.1    21.0
2004 08 13    15 17.60   -34 32.2    0.204    1.052    95.4    73.4    20.9
2004 08 23    16 00.76   -37 25.0    0.193    1.047    95.3    74.1    20.8
2004 09 02    16 56.66   -39 25.2    0.184    1.048    97.2    72.8    20.7
2004 09 12    18 04.46   -39 30.9    0.179    1.055   100.9    69.5    20.5
2004 09 22    19 17.80   -36 48.0    0.180    1.068   106.2    64.5    20.4
2004 10 02    20 26.49   -31 23.3    0.191    1.086   111.8    58.8    20.4
2004 10 12    21 24.15   -24 31.4    0.212    1.109   116.4    53.7    20.5
2004 10 22    22 10.77   -17 33.9    0.245    1.136   119.3    49.8    20.8
2004 11 01    22 48.85   -11 17.0    0.289    1.166   120.4    47.3    21.1
2004 11 11    23 21.03   -05 53.3    0.342    1.198   119.8    45.8    21.5
2004 11 21    23 49.49   -01 17.5    0.405    1.231   118.1    45.0    21.9

Timothy B. Spahr             (C) Copyright 2004 MPC           M.P.E.C. 2004-K28

Read MPEC 2004-K27 Read MPEC 2004-K29


Our Web policy. Index to the CBAT/MPC/ICQ pages.

MPC